Weather in Edigan

Russia / Altai Republic     51°06′34″N   86°15′40″E
temp.,
°C
wind,
m/s
gust,
m/s
humid.,
%
clouds,
%
prec.,
mm/h
press.,
hPa
HPBL,
m
24 july, sat
sat2401:00+12sse119380 0.3 100612
04:00+11sse229680 0.1 100730
07:00+12sse2397100 0.9 100884
10:00+19ssw117218 0.5 1007371
13:00+23wsw125181 2.2 10061317
16:00+24nnw234898 0.8 10041785
19:00+18nnw239159 2.1 1007165
22:00+14nw119626 1.0 100916
25 july, sun
sun2501:00+12nw009726 1.1 101012
04:00+11sse119747 0.0 101012
07:00+12s12976 0.0 101076
10:00+19sw11695 0.1 1009600
13:00+24nnw224716 0.1 10061792
16:00+21nnw236324 0.3 1007836
19:00+21n12750 1.4 1007145
22:00+14nnw11945 0.2 100911
26 july, mon
mon2601:00+13s119624 0.2 100814
04:00+12sse2297100 0.0 100831
07:00+13sse239557 0.0 100992
10:00+19s22705 0.1 1007374
13:00+24ssw124284 0.8 10051713
16:00+17nw588298 1.1 1007562
19:00+15nnw3591100 4.1 1009403
22:00+12s119662 0.1 100811
27 july, tue
tue2701:00+10n0097100 0.4 100810
04:00+9nw119972 0.1 100810
07:00+11wsw0098100 0.5 1008119
10:00+11nnw2499100 0.3 1009292
13:00+10nnw249898 0.6 1010323
16:00+12nnw238169 0.1 1009595
19:00+13nnw337569 0.1 1009749
22:00+9nnw2395100 0.0 1010154
28 july, wed
wed2801:00+9nw1297100 0.1 1010110
04:00+8nnw129899 0.0 101094
07:00+8nnw129599 0.0 1010143
10:00+13nnw216862 0.0 1009846
13:00+15nw225897 0.2 10081345
16:00+15nnw335514 0.1 10081240
19:00+15nnw23583 0.1 10071007
22:00+8nnw229514 0.0 101016